Weather in Vostok

Russia / Astrakhan Oblast     47°07′14″N   47°06′57″E
temp.,
°C
wind,
m/s
gust,
m/s
humid.,
%
clouds,
%
prec.,
mm/h
press.,
hPa
HPBL,
m
18 september, sat
sat1801:00+13ese33463 0.0 101831
04:00+12sse33467 0.0 101824
07:00+12sse334699 0.0 101835
10:00+17sse22335 0.0 1019559
13:00+20ese11265 0.0 10181639
16:00+22e32232 0.0 10171873
19:00+19ene44285 0.0 101758
22:00+16ese49375 0.0 1018179
19 september, sun
sun1901:00+15sse47706 0.0 1018137
04:00+14se3573100 0.0 1019100
07:00+13ese4870100 0.0 1019201
10:00+18ese7842100 0.0 1020752
13:00+22ese7831100 0.0 10191666
16:00+23se773164 0.0 10171891
19:00+19se71138100 0.0 1018457
22:00+17ese6115451 0.0 1018517
20 september, mon
mon2001:00+15ese511555 0.0 1017263
04:00+14e5125696 0.0 1016285
07:00+15e51157100 0.0 1015284
10:00+20se584699 0.0 1015470
13:00+24sse3535100 0.0 1014907
16:00+26s3434100 0.0 10131484
19:00+22wsw2247100 0.0 101316
22:00+20sse4670100 0.0 1014105
21 september, tue
tue2101:00+18s34853 0.0 101465
04:00+18s348690 0.0 101455
07:00+19se2280100 0.0 101533
10:00+23sw3553100 0.1 1016523
13:00+25sse2443100 0.0 10151065
16:00+24ese354696 0.1 1014462
19:00+22se4646100 0.0 1013151
22:00+20sse61137100 0.0 1013395
22 september, wed
wed2201:00+19ssw3646100 0.0 1013327
04:00+16se1278100 3.1 1013136
07:00+17wsw3684100 0.0 1014250
10:00+19w675369 0.0 1014709
13:00+22w663410 0.0 10151281
16:00+21wsw5536100 0.3 10151499
19:00+18s4551100 0.0 101599
22:00+17ssw5858100 0.0 1015233